| time (UTC) | temp F | wind direction | speed knots | gust knots | rain 1hr in | rain 24hr in | rain mn in | humidity % | barometer mb |
| 20260902135516 | 69 | 248 | 0.9 | 5.2 | 0.00 | 0.00 | 0.00 | 92 | 1015.2 |
| 20260902134517 | 69 | 135 | 0.9 | 2.6 | 0.00 | 0.00 | 0.00 | 92 | 1014.8 |
| 20260902133516 | 68 | 113 | 0.9 | 2.6 | 0.00 | 0.00 | 0.00 | 93 | 1014.7 |
| 20260902132536 | 68 | 90 | 1.7 | 4.3 | 0.00 | 0.00 | 0.00 | 93 | 1014.7 |
| 20260902131517 | 67 | 90 | 1.7 | 3.5 | 0.00 | 0.00 | 0.00 | 93 | 1015.0 |
| 20260902130516 | 67 | 113 | 2.6 | 6.1 | 0.00 | 0.00 | 0.00 | 93 | 1014.6 |
| 20260902125538 | 67 | 113 | 2.6 | 5.2 | 0.00 | 0.00 | 0.00 | 93 | 1014.7 |
| 20260902124516 | 67 | 90 | 0.9 | 3.5 | 0.00 | 0.00 | 0.00 | 94 | 1014.8 |
| 20260902123516 | 67 | 68 | 2.6 | 7.0 | 0.00 | 0.00 | 0.00 | 94 | 1014.6 |
| 20260902122536 | 66 | 68 | 2.6 | 6.1 | 0.00 | 0.00 | 0.00 | 95 | 1014.3 |
| 20260902121516 | 67 | 113 | 6.1 | 9.6 | 0.00 | 0.00 | 0.00 | 94 | 1014.1 |
| 20260902120516 | 67 | 68 | 4.3 | 7.8 | 0.00 | 0.00 | 0.00 | 94 | 1014.2 |
| 20260902115556 | 67 | 90 | 6.1 | 9.6 | 0.00 | 0.00 | 0.00 | 94 | 1014.7 |
| 20260902114516 | 67 | 0 | 1.7 | 4.3 | 0.00 | 0.00 | 0.00 | 94 | 1015.7 |
| 20260902113516 | 67 | 293 | 0.9 | 3.5 | 0.00 | 0.00 | 0.00 | 94 | 1015.7 |
| 20260902112518 | 67 | 338 | 2.6 | 7.8 | 0.00 | 0.00 | 0.00 | 94 | 1015.5 |
| 20260902111516 | 67 | 0.0 | 3.5 | 0.00 | 0.00 | 0.00 | 93 | 1015.2 | |
| 20260902110516 | 68 | 45 | 1.7 | 4.3 | 0.00 | 0.00 | 0.00 | 93 | 1014.9 |
| 20260902105518 | 68 | 113 | 1.7 | 6.1 | 0.00 | 0.00 | 0.00 | 93 | 1014.2 |
| 20260902104517 | 68 | 68 | 1.7 | 4.3 | 0.00 | 0.00 | 0.00 | 93 | 1014.3 |
| 20260902103516 | 68 | 68 | 2.6 | 5.2 | 0.00 | 0.00 | 0.00 | 92 | 1014.2 |
| 20260902102556 | 68 | 45 | 1.7 | 4.3 | 0.00 | 0.00 | 0.00 | 92 | 1014.3 |
| 20260902101516 | 68 | 68 | 2.6 | 6.1 | 0.00 | 0.00 | 0.00 | 92 | 1014.1 |
| 20260902100516 | 68 | 90 | 2.6 | 7.0 | 0.00 | 0.00 | 0.00 | 91 | 1014.3 |
| 20260902095536 | 69 | 90 | 2.6 | 5.2 | 0.00 | 0.00 | 0.00 | 90 | 1014.3 |
| 20260902094536 | 69 | 45 | 1.7 | 5.2 | 0.00 | 0.00 | 0.00 | 90 | 1014.6 |
| 20260902093516 | 69 | 68 | 1.7 | 3.5 | 0.00 | 0.00 | 0.00 | 89 | 1014.6 |
| 20260902092516 | 69 | 68 | 0.9 | 2.6 | 0.00 | 0.00 | 0.00 | 89 | 1014.6 |
| 20260902091516 | 69 | 0.0 | 2.6 | 0.00 | 0.00 | 0.00 | 88 | 1014.7 | |
| 20260902090516 | 70 | 338 | 0.9 | 3.5 | 0.00 | 0.00 | 0.00 | 88 | 1015.0 |
| 20260902085516 | 70 | 315 | 1.7 | 7.0 | 0.00 | 0.00 | 0.00 | 87 | 1015.4 |
| 20260902084536 | 70 | 315 | 3.5 | 9.6 | 0.00 | 0.00 | 0.00 | 87 | 1015.5 |
| 20260902083516 | 71 | 315 | 8.7 | 16.5 | 0.00 | 0.00 | 0.00 | 86 | 1016.0 |
| 20260902082516 | 72 | 293 | 5.2 | 11.3 | 0.00 | 0.00 | 0.00 | 87 | 1016.1 |
| 20260902081516 | 72 | 113 | 5.2 | 21.7 | 0.00 | 0.00 | 0.00 | 86 | 1014.3 |
| 20260902080516 | 73 | 135 | 1.7 | 3.5 | 0.00 | 0.00 | 0.00 | 84 | 1013.8 |
| 20260902075516 | 73 | 113 | 3.5 | 5.2 | 0.00 | 0.00 | 0.00 | 83 | 1013.8 |
| 20260902074516 | 73 | 113 | 3.5 | 6.1 | 0.00 | 0.00 | 0.00 | 83 | 1013.8 |
| 20260902073516 | 73 | 90 | 3.5 | 6.1 | 0.00 | 0.00 | 0.00 | 83 | 1013.8 |
| 20260902072516 | 73 | 113 | 1.7 | 5.2 | 0.00 | 0.00 | 0.00 | 86 | 1014.0 |
| 20260902071516 | 73 | 113 | 2.6 | 5.2 | 0.00 | 0.00 | 0.00 | 87 | 1013.9 |
| 20260902070516 | 73 | 90 | 3.5 | 5.2 | 0.00 | 0.00 | 0.00 | 89 | 1014.0 |
| 20260902065516 | 73 | 113 | 2.6 | 5.2 | 0.00 | 0.00 | 0.00 | 89 | 1013.9 |
| 20260902064536 | 73 | 90 | 2.6 | 3.5 | 0.00 | 0.00 | 0.00 | 90 | 1014.0 |
| 20260902063516 | 73 | 90 | 0.9 | 4.3 | 0.00 | 0.00 | 0.00 | 90 | 1014.0 |
| 20260902062516 | 73 | 90 | 2.6 | 5.2 | 0.00 | 0.00 | 0.00 | 91 | 1013.8 |
| 20260902061515 | 73 | 68 | 2.6 | 4.3 | 0.00 | 0.00 | 0.00 | 91 | 1014.1 |
| 20260902060536 | 73 | 45 | 1.7 | 3.5 | 0.00 | 0.00 | 0.00 | 91 | 1014.3 |
| 20260902055515 | 73 | 68 | 3.5 | 7.0 | 0.00 | 0.00 | 0.00 | 94 | 1014.5 |
| 20260902054516 | 73 | 315 | 0.9 | 2.6 | 0.00 | 0.00 | 0.00 | 96 | 1014.8 |
| 20260902053516 | 73 | 315 | 1.7 | 4.3 | 0.00 | 0.00 | 0.00 | 96 | 1014.7 |
| 20260902052516 | 73 | 68 | 0.9 | 2.6 | 0.00 | 0.00 | 0.00 | 96 | 1014.3 |
| 20260902051516 | 73 | 45 | 0.9 | 3.5 | 0.00 | 0.00 | 0.00 | 96 | 1014.4 |
| 20260902050516 | 74 | 90 | 1.7 | 3.5 | 0.00 | 0.00 | 0.00 | 96 | 1014.3 |
| 20260902045516 | 74 | 68 | 1.7 | 2.6 | 0.00 | 0.00 | 0.00 | 95 | 1014.4 |
| 20260902044516 | 74 | 90 | 2.6 | 4.3 | 0.00 | 0.00 | 0.00 | 95 | 1014.3 |
| 20260902043517 | 74 | 0.0 | 2.6 | 0.00 | 0.00 | 0.00 | 94 | 1014.1 | |
| 20260902042516 | 75 | 0.0 | 0.0 | 0.00 | 0.00 | 0.00 | 93 | 1014.2 | |
| 20260902041516 | 75 | 0.0 | 0.0 | 0.00 | 0.00 | 0.00 | 93 | 1014.0 | |
| 20260902040516 | 75 | 0.0 | 0.0 | 0.00 | 0.00 | 0.00 | 93 | 1013.9 | |
| 20260902035516 | 75 | 0.0 | 1.7 | 0.00 | 0.00 | 0.00 | 93 | 1014.1 | |
| 20260902034516 | 75 | 0.0 | 1.7 | 0.00 | 0.00 | 0.00 | 92 | 1014.3 | |
| 20260902033516 | 76 | 0.0 | 2.6 | 0.00 | 0.00 | 0.00 | 92 | 1014.3 | |
| 20260902032516 | 76 | 0.0 | 0.0 | 0.00 | 0.00 | 0.00 | 91 | 1014.3 | |
| 20260902031516 | 76 | 90 | 1.7 | 2.6 | 0.00 | 0.00 | 0.00 | 90 | 1014.2 |
| 20260902030516 | 76 | 0.0 | 0.0 | 0.00 | 0.00 | 0.00 | 90 | 1014.3 | |
| 20260902025518 | 76 | 0.0 | 0.0 | 0.00 | 0.00 | 0.00 | 90 | 1014.4 | |
| 20260902024516 | 76 | 0.0 | 0.0 | 0.00 | 0.00 | 0.00 | 89 | 1014.5 | |
| 20260902023516 | 76 | 0.0 | 0.0 | 0.00 | 0.00 | 0.00 | 89 | 1014.5 | |
| 20260902022516 | 76 | 0.0 | 0.0 | 0.00 | 0.00 | 0.00 | 89 | 1014.5 | |
| 20260902021516 | 77 | 0.0 | 0.0 | 0.00 | 0.00 | 0.00 | 89 | 1014.4 | |
| 20260902020538 | 77 | 0.0 | 0.0 | 0.00 | 0.00 | 0.00 | 89 | 1014.3 | |
| 20260902015516 | 77 | 0.0 | 0.9 | 0.00 | 0.00 | 0.00 | 89 | 1014.3 | |
| 20260902014516 | 77 | 338 | 1.7 | 3.5 | 0.00 | 0.00 | 0.00 | 89 | 1014.1 |
| 20260902013516 | 77 | 0.0 | 0.0 | 0.00 | 0.00 | 0.00 | 88 | 1014.1 | |
| 20260902012516 | 78 | 338 | 0.9 | 3.5 | 0.00 | 0.00 | 0.00 | 88 | 1013.8 |
| 20260902011516 | 78 | 338 | 2.6 | 5.2 | 0.00 | 0.00 | 0.00 | 88 | 1013.9 |
| 20260902010516 | 78 | 315 | 0.9 | 1.7 | 0.00 | 0.00 | 0.00 | 89 | 1013.6 |
| 20260902005536 | 78 | 225 | 0.9 | 5.2 | 0.00 | 0.00 | 0.00 | 89 | 1013.1 |
| 20260902004516 | 78 | 180 | 2.6 | 5.2 | 0.00 | 0.00 | 0.00 | 88 | 1012.8 |
| 20260902003516 | 78 | 23 | 1.7 | 4.3 | 0.00 | 0.00 | 0.00 | 88 | 1013.0 |
| 20260902002516 | 78 | 158 | 4.3 | 7.8 | 0.00 | 0.00 | 0.00 | 88 | 1012.7 |
| 20260902001536 | 79 | 158 | 2.6 | 3.5 | 0.00 | 0.00 | 0.00 | 85 | 1013.6 |
| 20260902000516 | 79 | 0.0 | 0.0 | 0.00 | 0.00 | 0.00 | 84 | 1014.1 | |
| 20260901235536 | 80 | 158 | 0.9 | 2.6 | 0.00 | 0.00 | 0.00 | 84 | 1014.1 |
| 20260901234516 | 80 | 0.0 | 2.6 | 0.00 | 0.00 | 0.00 | 84 | 1014.5 | |
| 20260901233516 | 80 | 0.0 | 1.7 | 0.00 | 0.00 | 0.00 | 83 | 1014.6 | |
| 20260901232516 | 81 | 270 | 0.9 | 1.7 | 0.00 | 0.00 | 0.00 | 80 | 1014.6 |
| 20260901231516 | 83 | 248 | 0.9 | 2.6 | 0.00 | 0.00 | 0.00 | 78 | 1014.2 |
| 20260901230516 | 83 | 0.0 | 1.7 | 0.00 | 0.00 | 0.00 | 76 | 1013.9 | |
| 20260901225536 | 84 | 0.0 | 0.9 | 0.00 | 0.00 | 0.00 | 76 | 1014.2 | |
| 20260901224516 | 84 | 270 | 1.7 | 3.5 | 0.00 | 0.00 | 0.00 | 74 | 1014.1 |
| 20260901223516 | 85 | 225 | 0.9 | 2.6 | 0.00 | 0.00 | 0.00 | 74 | 1014.1 |
| 20260901222516 | 86 | 248 | 0.9 | 3.5 | 0.00 | 0.00 | 0.00 | 71 | 1014.0 |
| 20260901221516 | 85 | 248 | 0.9 | 3.5 | 0.00 | 0.00 | 0.00 | 72 | 1014.1 |
| 20260901220516 | 86 | 203 | 1.7 | 3.5 | 0.00 | 0.00 | 0.00 | 68 | 1014.2 |
| 20260901215516 | 86 | 203 | 0.9 | 3.5 | 0.00 | 0.00 | 0.00 | 71 | 1014.1 |
| 20260901214516 | 85 | 0.0 | 1.7 | 0.00 | 0.00 | 0.00 | 77 | 1014.2 | |
| 20260901213516 | 85 | 225 | 0.9 | 4.3 | 0.00 | 0.00 | 0.00 | 77 | 1014.0 |
| 20260901212516 | 85 | 225 | 2.6 | 4.3 | 0.00 | 0.00 | 0.00 | 76 | 1014.1 |
| 20260901211516 | 84 | 225 | 1.7 | 4.3 | 0.00 | 0.00 | 0.00 | 76 | 1014.2 |
| 20260901210516 | 83 | 0.0 | 1.7 | 0.00 | 0.00 | 0.00 | 78 | 1014.1 | |
| 20260901205516 | 84 | 0.0 | 0.0 | 0.00 | 0.00 | 0.00 | 76 | 1013.6 | |
| 20260901204516 | 84 | 0.0 | 1.7 | 0.00 | 0.00 | 0.00 | 74 | 1013.7 | |
| 20260901203516 | 84 | 203 | 1.7 | 7.8 | 0.00 | 0.00 | 0.00 | 72 | 1014.5 |
| 20260901202536 | 85 | 248 | 3.5 | 7.0 | 0.00 | 0.00 | 0.00 | 73 | 1015.1 |
| 20260901201515 | 87 | 248 | 2.6 | 7.0 | 0.00 | 0.00 | 0.00 | 70 | 1015.1 |
| 20260901200556 | 86 | 248 | 3.5 | 7.0 | 0.00 | 0.00 | 0.00 | 72 | 1014.9 |
| 20260901195516 | 87 | 225 | 2.6 | 7.0 | 0.00 | 0.00 | 0.00 | 72 | 1014.9 |
| 20260901194515 | 88 | 225 | 2.6 | 7.0 | 0.00 | 0.00 | 0.00 | 70 | 1015.0 |
| 20260901193515 | 89 | 225 | 2.6 | 8.7 | 0.00 | 0.00 | 0.00 | 69 | 1015.1 |
| 20260901192515 | 89 | 225 | 2.6 | 6.1 | 0.00 | 0.00 | 0.00 | 69 | 1015.1 |
| 20260901191516 | 89 | 225 | 2.6 | 6.1 | 0.00 | 0.00 | 0.00 | 71 | 1015.1 |
| 20260901190516 | 89 | 225 | 0.9 | 4.3 | 0.00 | 0.00 | 0.00 | 67 | 1015.0 |
| 20260901185515 | 88 | 225 | 1.7 | 5.2 | 0.00 | 0.00 | 0.00 | 70 | 1015.1 |
| 20260901184516 | 88 | 225 | 0.9 | 2.6 | 0.00 | 0.00 | 0.00 | 69 | 1015.2 |
| 20260901183516 | 87 | 293 | 1.7 | 7.8 | 0.00 | 0.00 | 0.00 | 71 | 1015.1 |
| 20260901182515 | 87 | 248 | 1.7 | 4.3 | 0.00 | 0.00 | 0.00 | 68 | 1015.2 |
| 20260901181516 | 87 | 225 | 2.6 | 5.2 | 0.00 | 0.00 | 0.00 | 70 | 1015.1 |
| 20260901180515 | 86 | 225 | 1.7 | 3.5 | 0.00 | 0.00 | 0.00 | 72 | 1015.0 |
| 20260901175516 | 86 | 203 | 2.6 | 7.0 | 0.00 | 0.00 | 0.00 | 74 | 1015.1 |
| 20260901174515 | 85 | 248 | 1.7 | 6.1 | 0.00 | 0.00 | 0.00 | 80 | 1015.4 |
| 20260901173515 | 85 | 270 | 2.6 | 7.0 | 0.00 | 0.00 | 0.00 | 78 | 1015.3 |
| 20260901172516 | 85 | 225 | 1.7 | 5.2 | 0.00 | 0.00 | 0.00 | 75 | 1015.3 |
| 20260901171515 | 85 | 203 | 0.9 | 3.5 | 0.00 | 0.00 | 0.00 | 81 | 1015.3 |
| 20260901170515 | 84 | 248 | 0.9 | 5.2 | 0.00 | 0.00 | 0.00 | 80 | 1015.3 |
| 20260901165536 | 85 | 0.0 | 2.6 | 0.00 | 0.00 | 0.00 | 79 | 1015.5 | |
| 20260901164515 | 84 | 158 | 0.9 | 3.5 | 0.00 | 0.00 | 0.00 | 80 | 1015.5 |
| 20260901163515 | 84 | 248 | 1.7 | 3.5 | 0.00 | 0.00 | 0.00 | 80 | 1015.4 |
| 20260901162516 | 83 | 0.0 | 1.7 | 0.00 | 0.00 | 0.00 | 81 | 1015.4 | |
| 20260901161515 | 82 | 180 | 0.9 | 2.6 | 0.00 | 0.00 | 0.00 | 84 | 1015.6 |
| 20260901160535 | 81 | 225 | 1.7 | 4.3 | 0.00 | 0.00 | 0.00 | 86 | 1015.6 |
| 20260901155515 | 80 | 293 | 1.7 | 3.5 | 0.00 | 0.00 | 0.00 | 86 | 1015.5 |
| 20260901154515 | 79 | 248 | 0.9 | 3.5 | 0.00 | 0.00 | 0.00 | 92 | 1015.6 |
| 20260901153515 | 77 | 270 | 0.9 | 1.7 | 0.00 | 0.00 | 0.00 | 96 | 1015.5 |
| 20260901152515 | 76 | 293 | 0.9 | 2.6 | 0.00 | 0.00 | 0.00 | 98 | 1015.5 |
| 20260901151515 | 75 | 0.0 | 0.9 | 0.00 | 0.00 | 0.00 | 98 | 1015.2 | |
| 20260901150515 | 74 | 0.0 | 0.0 | 0.00 | 0.00 | 0.00 | 98 | 1015.2 | |
| 20260901145537 | 74 | 203 | 0.9 | 1.7 | 0.00 | 0.00 | 0.00 | 98 | 1015.2 |
| 20260901144515 | 74 | 0.0 | 0.0 | 0.00 | 0.00 | 0.00 | 99 | 1015.2 | |
| 20260901143515 | 74 | 0.0 | 2.6 | 0.00 | 0.00 | 0.00 | 98 | 1015.1 | |
| 20260901142515 | 74 | 0.0 | 0.0 | 0.00 | 0.00 | 0.00 | 98 | 1015.1 | |
| 20260901141515 | 74 | 0.0 | 0.0 | 0.00 | 0.00 | 0.00 | 99 | 1015.2 | |
| 20260901140535 | 73 | 0.0 | 0.0 | 0.00 | 0.00 | 0.00 | 99 | 1015.1 | |
| 20260901135535 | 73 | 0.0 | 0.0 | 0.00 | 0.00 | 0.00 | 99 | 1015.2 |